This is the latest recevied weather packets stored in our database for station/object N5SRF. If no packets are shown the sender has not sent any weather packets the latest 1 day(s).
| Time | Temp. | Humidity | Pressure | Rain* | Wind** | Luminosity | Snow |
|---|---|---|---|---|---|---|---|
| 1777997115 | 25.56° C | 86% | 1013.6 hPa | 0 mm | 1.34 m/s, 166° | 94 W/m² | - |
| 1777996812 | 25.56° C | 86% | 1013.4 hPa | 0 mm | 0.45 m/s, 199° | 128 W/m² | - |
| 1777996508 | 26.11° C | 85% | 1013.4 hPa | 0 mm | 1.79 m/s, 163° | 127 W/m² | - |
| 1777996205 | 26.11° C | 86% | 1013.4 hPa | 0 mm | 1.34 m/s, 189° | 290 W/m² | - |
| 1777995901 | 25.56° C | 87% | 1013.4 hPa | 0 mm | 1.34 m/s, 346° | 292 W/m² | - |
| 1777995597 | 25.56° C | 86% | 1013.5 hPa | 0 mm | 1.34 m/s, 130° | 253 W/m² | - |
| 1777995295 | 25° C | 87% | 1013.2 hPa | 0 mm | 0.89 m/s, 231° | 206 W/m² | - |
| 1777994991 | 25.56° C | 87% | 1013.4 hPa | 0 mm | 2.24 m/s, 198° | 153 W/m² | - |
| 1777994689 | 25° C | 88% | 1013.5 hPa | 0 mm | 0.45 m/s, 155° | 221 W/m² | - |
| 1777994384 | 25° C | 88% | 1013.3 hPa | 0 mm | 1.34 m/s, 173° | 309 W/m² | - |
| 1777994079 | 25° C | 88% | 1013.4 hPa | 0 mm | 0.89 m/s, 171° | 258 W/m² | - |
| 1777993777 | 25° C | 88% | 1013.3 hPa | 0 mm | 0.89 m/s, 210° | 175 W/m² | - |
| 1777993468 | 25° C | 87% | 1013.2 hPa | 0 mm | 3.13 m/s, 305° | 158 W/m² | - |
| 1777993168 | 25° C | 89% | 1013.4 hPa | 0 mm | 0.45 m/s, 144° | 219 W/m² | - |
| 1777992866 | 24.44° C | 89% | 1013.3 hPa | 0 mm | 0.89 m/s, 143° | 233 W/m² | - |
| 1777992564 | 24.44° C | 91% | 1013.3 hPa | 0 mm | 0.89 m/s, 219° | 247 W/m² | - |
| 1777992262 | 23.89° C | 92% | 1013.1 hPa | 0 mm | 0.45 m/s, 144° | 231 W/m² | - |
| 1777991959 | 23.89° C | 91% | 1013.2 hPa | 0 mm | 1.34 m/s, 176° | 145 W/m² | - |
| 1777991656 | 23.89° C | 91% | 1013.5 hPa | 0 mm | 0.89 m/s, 199° | 95 W/m² | - |
| 1777991353 | 23.89° C | 91% | 1013.3 hPa | 0 mm | 1.79 m/s, 205° | 108 W/m² | - |
| 1777991051 | 23.89° C | 91% | 1013.4 hPa | 0 mm | 2.68 m/s, 170° | 144 W/m² | - |
| 1777990747 | 23.89° C | 91% | 1013.4 hPa | 0 mm | 0.89 m/s, 185° | 118 W/m² | - |
| 1777990444 | 23.89° C | 91% | 1013.4 hPa | 0 mm | 1.34 m/s, 165° | 115 W/m² | - |
| 1777990141 | 23.89° C | 91% | 1013 hPa | 0 mm | 2.24 m/s, 112° | 127 W/m² | - |
| 1777989832 | 23.89° C | 92% | 1013 hPa | 0 mm | 0.45 m/s, 195° | 147 W/m² | - |
* Rain latest hour (hover to see other rain measurements)
** Current wind speed in m/s (hover to see current wind gust speed)